�������r�C�����j�^�v���󋵏��
Date,Time,5�C6���@���p�r�C��,����,����(m/s)
2022/05/06,00:00,3.8,��,4.2
2022/05/06,00:10,3.6,��,4.7
2022/05/06,00:20,3.8,��,6.1
2022/05/06,00:30,3.9,��,7.6
2022/05/06,00:40,3.8,��,6.9
2022/05/06,00:50,3.8,��,6.0
2022/05/06,01:00,3.8,��,5.1
2022/05/06,01:10,3.9,��쐼,4.1
2022/05/06,01:20,3.8,�쐼,3.2
2022/05/06,01:30,3.7,���쐼,3.7
2022/05/06,01:40,3.7,�쐼,2.5
2022/05/06,01:50,3.9,�쐼,2.6
2022/05/06,02:00,3.7,��쐼,3.0
2022/05/06,02:10,3.8,��,2.3
2022/05/06,02:20,3.9,��,1.9
2022/05/06,02:30,3.8,��,1.2
2022/05/06,02:40,4.0,��쓌,1.7
2022/05/06,02:50,3.9,��쓌,2.3
2022/05/06,03:00,3.9,��쓌,2.3
2022/05/06,03:10,3.8,��,1.4
2022/05/06,03:20,3.9,��,1.7
2022/05/06,03:30,3.8,��,1.4
2022/05/06,03:40,4.0,��,1.2
2022/05/06,03:50,3.8,��쐼,1.5
2022/05/06,04:00,3.9,��,0.6
2022/05/06,04:10,3.8,-,CALM
2022/05/06,04:20,3.8,-,CALM
2022/05/06,04:30,3.8,��쐼,0.9
2022/05/06,04:40,3.8,-,CALM
2022/05/06,04:50,3.7,��쓌,0.8
2022/05/06,05:00,4.0,��쓌,0.9
2022/05/06,05:10,3.7,��쓌,2.0
2022/05/06,05:20,3.9,�쓌,2.0
2022/05/06,05:30,3.9,�쓌,2.8
2022/05/06,05:40,3.9,��쓌,2.8
2022/05/06,05:50,3.8,��쓌,3.1
2022/05/06,06:00,3.8,��쓌,2.8
2022/05/06,06:10,3.9,��,2.5
2022/05/06,06:20,3.9,��,2.8
2022/05/06,06:30,3.8,��,3.9
2022/05/06,06:40,3.9,��,4.4
2022/05/06,06:50,3.7,��,3.5
2022/05/06,07:00,3.6,��,2.8
2022/05/06,07:10,3.8,��,2.3
2022/05/06,07:20,4.0,��쐼,1.5
2022/05/06,07:30,3.8,��,2.0
2022/05/06,07:40,3.7,��쐼,1.4
2022/05/06,07:50,3.8,�쐼,0.9
2022/05/06,08:00,3.7,��쓌,2.0
2022/05/06,08:10,3.9,��쓌,2.0
2022/05/06,08:20,3.8,��쓌,2.6
2022/05/06,08:30,3.7,��쓌,3.9
2022/05/06,08:40,3.7,��,5.5
2022/05/06,08:50,3.7,��쓌,6.2
2022/05/06,09:00,3.6,��,7.1
2022/05/06,09:10,3.8,��,5.8
2022/05/06,09:20,3.9,��,6.1
2022/05/06,09:30,3.8,��,7.9
2022/05/06,09:40,3.7,��,9.6
2022/05/06,09:50,3.8,��,9.1
2022/05/06,10:00,3.9,��,11.0
2022/05/06,10:10,3.9,��쓌,12.7
2022/05/06,10:20,3.8,��,11.4
2022/05/06,10:30,3.8,��,12.0
2022/05/06,10:40,4.0,��,11.6
2022/05/06,10:50,3.9,��,10.9
2022/05/06,11:00,3.8,��,10.7
2022/05/06,11:10,3.8,��쓌,10.9
2022/05/06,11:20,3.8,��,11.0
2022/05/06,11:30,3.8,��쓌,13.3
2022/05/06,11:40,3.8,��쓌,15.2
2022/05/06,11:50,3.8,��,14.2
2022/05/06,12:00,3.9,��,13.9
2022/05/06,12:10,4.0,��,15.2
2022/05/06,12:20,3.7,��쓌,13.3
2022/05/06,12:30,3.9,��쓌,13.9
2022/05/06,12:40,3.8,��쓌,14.1
2022/05/06,12:50,4.0,��쓌,15.2
2022/05/06,13:00,3.9,��쓌,15.2
2022/05/06,13:10,3.8,��쓌,16.8
2022/05/06,13:20,3.9,��쓌,16.0
2022/05/06,13:30,3.9,��,14.4
2022/05/06,13:40,3.7,��쓌,14.4
2022/05/06,13:50,3.8,��쓌,12.7
2022/05/06,14:00,3.8,��,13.0
2022/05/06,14:10,4.0,��,10.2
2022/05/06,14:20,4.0,��,10.5
2022/05/06,14:30,3.8,��,12.4
2022/05/06,14:40,3.7,��쓌,13.2
2022/05/06,14:50,3.8,��,13.3
2022/05/06,15:00,4.0,��,13.3
2022/05/06,15:10,3.8,��쓌,11.4
2022/05/06,15:20,3.8,��쓌,13.3
2022/05/06,15:30,3.9,��쓌,12.2
2022/05/06,15:40,3.9,��,12.2
2022/05/06,15:50,3.7,��,11.0
2022/05/06,16:00,3.9,��,11.6
2022/05/06,16:10,3.7,��,12.5
2022/05/06,16:20,3.7,��,12.1
2022/05/06,16:30,3.9,��,11.8
2022/05/06,16:40,3.9,��,10.7
2022/05/06,16:50,3.9,��,10.4
2022/05/06,17:00,3.8,��,9.9
2022/05/06,17:10,3.9,��,9.7
2022/05/06,17:20,4.0,��,8.3
2022/05/06,17:30,3.7,��,7.9
2022/05/06,17:40,3.8,��쐼,6.7
2022/05/06,17:50,3.9,��,8.6
2022/05/06,18:00,4.0,��,8.1
2022/05/06,18:10,3.8,��,9.0
2022/05/06,18:20,3.9,��,10.6
2022/05/06,18:30,3.8,��,8.8
2022/05/06,18:40,4.0,��,9.0
2022/05/06,18:50,3.8,��,9.1
2022/05/06,19:00,4.0,��,8.4
2022/05/06,19:10,3.7,��,9.1
2022/05/06,19:20,3.7,��,8.6
2022/05/06,19:30,3.9,��,9.7
2022/05/06,19:40,4.0,��,9.9
2022/05/06,19:50,3.9,��,10.4
2022/05/06,20:00,3.7,��,9.2
2022/05/06,20:10,3.8,��,8.4
2022/05/06,20:20,3.7,��,9.1
2022/05/06,20:30,3.8,��,10.0
2022/05/06,20:40,3.7,��,9.7
2022/05/06,20:50,4.0,��,9.8
2022/05/06,21:00,4.1,��,9.4
2022/05/06,21:10,3.7,��,9.0
2022/05/06,21:20,3.7,��,9.4
2022/05/06,21:30,3.8,��,8.3
2022/05/06,21:40,3.9,��,10.4
2022/05/06,21:50,3.8,��,9.1
2022/05/06,22:00,3.9,��,8.0
2022/05/06,22:10,3.9,��,7.9
2022/05/06,22:20,3.7,��,6.8
2022/05/06,22:30,3.9,��,7.9
2022/05/06,22:40,3.9,��,7.6
2022/05/06,22:50,3.7,��,8.8
2022/05/06,23:00,3.8,��,9.1
2022/05/06,23:10,3.7,��,9.1
2022/05/06,23:20,3.9,��,9.2
2022/05/06,23:30,3.9,��,9.6
2022/05/06,23:40,3.9,��,8.8
2022/05/06,23:50,3.9,��,9.6
